SCP
0 0 0 0 0 0 0 0 0 0 0 0 0 0 0 0 0 0 0 0 0 0 0 0 0 0 0 0 0 0 0 0 0 0 0 0 0 0 0 0 0 0 0
0 0 0 0 0 0 0 0 0 0 0 0 0 0 0 0 0 0 0 0 0 0 0 0 0 0 0 0 0 0 0 0 0 0 0 0 0 0 0 0 0 0 0
0 0 0 0 0 0 0 0 0 0 0 0 0 0 0 0 0 0 0 0 0 0 0 0 0 0 0 0 0 0 0 0 0 0 0 0 0 0 0 0 0 0 0
0 0 0 0 0 0 0 0 0 0 0 0 0 0 0 0 0 0 0 0 0 0 0 0 0 0 0 0 0 0 0 0 0 0 0 0 0 0 0 0 0 0 0
0 0 0 0 0 0 0 0 0 0 0 0 0 0 0 0 0 0 0 0 0 0 0 0 0 0 0 0 0 0 0 0 0 0 0 0 0 0 0 0 0 0 0
0 0 0 0 0 0 0 0 0 0 0 0 0 0 0 0 0 0 0 0 0 0 0 0 0 0 0 0 0 0 0 0 0 0 0 0 0 0 0 0 0 0 0
0 0 0 0 0 0 0 0 0 0 0 0 0 0 0 0 0 0 0 0 0 0 0 0 0 0 0 0 0 0 0 0 0 0 0 0 0 0 0 0 0 0 0
0 0 0 0 0 0 0 0 0 0 0 0 0 0 0 0 0 0 0 0 0 0 0 0 0 0 0 0 0 0 0 0 0 0 0 0 0 0 0 0 1 1 1
0 0 0 0 0 0 0 0 0 0 0 0 0 0 0 0 0 0 0 0 0 0 0 0 0 0 0 0 0 0 0 0 0 0 0 0 0 0 0 1 1 1 1
0 0 0 0 0 0 0 0 0 0 0 0 0 0 0 0 0 0 0 0 0 0 0 0 0 0 0 0 0 0 0 0 0 0 0 0 0 0 1 1 1 1 1
0 0 0 0 0 0 0 0 0 0 0 0 0 0 0 0 0 0 0 0 0 0 0 0 0 0 0 0 0 0 0 0 0 0 0 0 0 0 1 1 1 1 1
0 0 0 0 0 0 0 0 0 0 0 0 0 0 0 0 0 0 0 0 0 0 0 0 0 0 0 0 0 0 0 0 0 0 0 0 0 0 0 0 1 1 1
0 0 0 0 0 0 0 0 0 0 0 0 0 0 0 0 0 0 0 0 0 0 0 0 0 0 0 0 0 0 0 0 0 0 0 0 0 0 0 0 0 0 0
0 0 0 0 0 0 0 0 0 0 0 0 0 0 0 0 0 0 0 0 0 0 0 0 0 0 0 0 0 0 0 0 0 0 0 0 0 0 0 0 0 0 0
0 0 0 0 0 0 0 0 0 0 0 0 0 0 0 0 0 0 0 0 0 0 0 0 0 0 0 0 0 0 0 0 0 0 0 0 0 0 0 0 0 0 0
0 0 0 0 0 0 0 0 0 0 0 0 0 0 0 0 0 0 0 0 0 0 0 0 0 0 0 0 0 0 0 0 0 -0 0 0 0 0 0 0 0 0 0
0 0 0 0 0 0 0 0 0 0 0 0 0 0 0 0 0 0 0 0 0 0 0 0 0 0 0 0 0 0 0 0 -0 -0 -0 0 0 0 0 0 0 0 0
0 0 0 0 0 0 0 0 0 0 0 0 0 0 0 0 0 0 0 0 0 0 0 0 0 0 0 0 0 0 0 0 0 -0 -0 0 0 0 0 0 0 0 0
0 0 0 0 0 0 0 0 0 0 0 0 0 0 0 0 0 0 0 0 0 0 0 0 0 0 0 0 0 0 0 0 0 0 0 0 0 0 0 0 0 0 0
0 0 0 0 0 0 0 0 0 0 0 0 0 0 0 0 0 0 0 0 0 0 0 0 0 0 0 0 0 0 0 0 0 0 0 0 0 0 0 0 0 0 0
0 0 0 0 0 0 0 0 0 0 0 0 0 0 0 0 0 0 0 0 0 0 0 0 0 0 0 0 0 0 0 0 0 0 0 0 0 0 0 0 0 0 0
0 0 0 0 0 0 0 0 0 0 0 0 0 0 0 0 0 0 0 0 0 0 0 0 0 0 0 0 0 0 0 0 0 0 0 0 0 0 0 0 0 0 0
0 0 0 0 0 0 0 0 0 0 0 0 0 0 0 0 0 0 0 0 0 0 0 0 0 0 0 0 0 0 0 0 0 0 0 0 0 0 0 0 0 0 0
0 0 0 0 0 0 0 0 0 0 0 0 0 0 0 0 0 0 0 0 0 0 0 0 0 0 0 0 0 0 0 0 0 0 0 0 0 0 0 0 0 0 0
0 0 0 0 0 0 0 0 0 0 0 0 0 0 0 0 0 0 0 0 0 0 0 0 0 0 0 0 0 0 0 -0 -0 -0 -0 -0 0 0 0 0 0 0 0
0 0 0 0 0 0 0 0 0 0 0 0 0 0 0 0 0 0 0 0 0 0 0 0 0 0 0 0 0 0 -0 -0 -0 -0 -0 -0 -0 -0 0 0 0 0 0
Wind_Speed
5 5 5 5 6 5 6 7 8 9 10 11 10 11 12 13 13 12 9 12 18 22 24 25 25 26 27 28 29 29 28 28 29 29 29 29 29 29 29 29 28 28 28
5 5 6 6 6 6 6 7 9 9 9 9 11 13 14 14 13 14 13 12 16 21 24 26 27 27 28 29 30 30 30 31 31 30 31 31 31 31 31 31 31 31 31
5 5 6 6 5 6 7 7 9 8 8 9 11 13 12 13 13 14 14 12 11 15 22 25 27 28 29 30 31 31 32 31 31 31 31 31 32 33 34 34 33 33 33
5 5 5 5 6 6 6 6 7 8 8 9 10 10 11 11 14 15 14 13 12 11 14 20 24 27 29 30 32 33 33 33 31 31 32 32 32 33 35 36 36 35 35
4 3 4 5 6 5 5 6 7 8 9 10 10 10 11 12 13 14 15 15 14 14 13 13 17 22 26 29 31 32 33 34 32 32 33 34 34 34 36 37 37 37 37
8 6 5 7 7 6 6 7 8 8 8 9 10 11 11 12 12 13 14 13 12 14 15 16 14 13 20 25 28 30 32 33 33 34 34 35 36 36 38 39 38 38 39
10 9 6 7 7 6 7 9 8 10 9 9 11 11 12 13 12 10 10 11 14 15 15 16 13 12 10 16 22 26 29 31 33 34 35 36 37 38 40 40 40 40 40
10 8 9 7 7 7 8 9 9 8 8 9 10 12 10 11 8 11 13 13 14 14 14 15 15 14 13 11 12 17 23 28 30 33 34 36 37 38 39 40 41 41 42
10 9 9 8 8 7 7 9 9 9 9 10 9 8 9 10 14 10 12 13 15 14 14 15 17 18 18 15 15 16 18 23 29 31 33 35 36 37 38 39 40 40 41
10 9 9 9 8 7 8 8 9 9 9 9 8 7 9 13 12 13 12 12 15 15 16 15 16 17 18 16 15 18 17 19 26 30 32 33 34 36 37 38 39 39 40
8 9 9 8 8 7 8 9 9 9 8 8 8 9 11 10 13 15 17 14 13 13 14 15 15 15 17 17 15 16 17 22 26 29 31 32 32 33 34 35 35 37 38
6 9 8 8 8 7 8 9 9 10 8 9 8 8 9 9 11 13 17 18 16 14 15 14 14 15 14 15 18 18 21 26 28 30 32 33 33 33 33 33 32 32 33
6 9 9 9 8 8 9 9 9 9 9 9 9 9 9 10 10 11 14 16 19 17 18 15 14 14 14 14 15 18 21 27 29 30 32 33 34 33 33 33 33 33 33
6 8 9 9 9 9 9 9 8 9 8 10 11 11 9 10 10 11 12 15 18 18 18 20 14 15 14 14 16 19 19 25 29 32 33 34 34 34 33 33 32 32 32
6 8 9 9 10 10 10 10 8 10 10 10 11 12 11 10 10 11 11 12 15 19 21 22 18 17 15 15 17 18 20 26 32 34 35 35 34 33 33 32 31 30 30
7 8 9 10 10 11 11 11 10 10 12 12 11 13 13 11 11 11 12 12 13 15 20 19 19 20 20 16 21 22 22 30 32 33 33 33 33 33 32 31 31 30 29
8 9 10 10 11 11 12 11 12 13 14 14 14 14 15 15 13 12 12 13 13 14 17 18 18 20 25 23 20 20 20 20 19 29 31 32 33 34 33 32 31 30 29
8 9 9 10 11 11 12 13 13 14 15 16 16 16 16 14 17 14 13 15 14 15 16 20 19 19 24 24 22 22 19 18 19 26 31 32 33 34 33 32 30 29 27
9 9 9 10 11 12 13 13 14 15 16 16 16 17 17 17 17 15 16 16 14 14 15 17 20 18 18 19 22 21 22 19 19 20 26 28 29 31 32 32 31 29 27
9 9 10 11 12 12 13 13 15 17 17 17 17 16 17 17 17 18 16 17 16 17 18 17 17 17 18 20 19 18 18 17 17 17 20 23 27 30 31 32 30 27 25
9 10 11 11 12 12 11 15 17 17 18 18 17 17 17 18 22 19 17 18 19 17 17 17 17 18 18 18 18 17 19 18 19 16 16 16 16 15 17 21 22 22 23
10 10 11 12 13 11 17 21 20 17 17 18 17 17 17 18 20 25 27 27 26 22 21 19 18 20 22 21 19 18 18 19 20 15 14 16 15 16 16 15 21 25 24
11 12 12 13 15 16 19 22 23 19 18 16 17 17 15 16 22 19 23 28 26 28 28 22 22 22 23 22 22 23 21 21 21 17 16 18 16 16 15 16 26 28 28
11 12 13 14 15 15 19 21 24 19 17 16 17 18 19 20 19 23 23 23 23 22 24 20 19 22 22 23 22 22 23 22 20 16 15 17 16 15 15 15 24 28 28
12 12 13 14 15 16 18 21 23 16 15 17 17 18 20 20 25 30 26 25 25 22 22 27 30 30 33 33 27 18 17 17 17 14 12 14 15 15 14 14 17 24 25
12 13 13 13 15 15 18 21 22 13 15 16 16 17 21 23 28 32 25 24 24 22 22 23 24 24 22 23 26 19 15 15 17 16 12 12 13 12 11 10 8 8 10
Wind_Direction
266 274 274 275 277 281 279 280 283 288 287 285 280 277 275 274 271 267 264 239 242 252 255 256 256 255 254 254 253 253 253 253 250 245 242 241 240 240 240 239 239 239 239
277 285 282 281 282 281 284 285 285 286 284 284 284 282 278 274 269 268 268 259 236 243 251 253 253 253 253 253 253 252 251 251 252 250 246 242 240 240 239 239 239 238 238
280 282 284 288 290 292 291 287 289 285 284 286 284 283 283 280 278 274 271 271 265 244 244 252 255 254 253 251 251 251 251 250 249 249 248 246 243 240 239 239 239 238 238
291 293 297 306 315 311 303 303 303 300 298 296 295 296 292 286 281 279 278 273 272 270 258 250 254 258 260 259 257 255 253 251 249 247 247 247 245 243 242 240 239 239 238
350 339 344 343 339 335 332 329 320 317 311 307 303 298 293 289 286 282 278 278 275 272 273 268 254 254 259 262 262 261 260 258 254 250 248 247 247 246 245 244 243 241 240
40 34 30 18 9 6 359 351 338 327 316 315 308 299 294 289 282 280 283 283 281 278 275 275 272 258 249 256 261 264 264 264 262 259 255 251 249 247 247 247 245 244 243
48 42 33 27 15 12 3 354 346 332 327 330 314 310 300 288 291 289 297 300 296 292 287 282 279 278 269 256 256 261 264 266 266 265 262 259 255 251 249 247 247 246 245
44 36 30 22 14 1 1 356 352 336 329 331 324 317 311 310 304 325 308 296 297 298 297 300 299 293 289 282 272 262 264 268 271 271 270 266 262 257 254 250 248 246 245
40 36 27 17 9 2 356 350 348 340 329 325 332 321 319 316 321 295 309 310 304 304 306 305 300 296 293 288 285 274 263 267 272 274 275 274 271 266 261 256 253 250 247
37 28 21 12 5 359 353 348 346 334 329 325 327 320 311 306 305 305 304 304 308 306 303 301 300 300 297 294 289 287 284 281 285 285 283 280 278 275 270 265 259 255 251
36 23 15 8 2 356 352 345 340 337 328 325 321 314 310 307 299 304 306 306 301 299 300 301 300 298 296 294 293 298 321 317 309 302 297 293 289 285 282 278 271 263 256
25 21 7 4 360 355 347 342 336 334 329 323 315 309 308 304 305 304 303 306 304 303 302 298 295 293 294 297 297 310 320 314 308 304 300 297 295 293 291 289 288 283 273
14 9 2 357 356 348 341 338 330 326 320 317 310 310 305 298 300 300 299 302 303 302 300 296 294 296 297 297 295 305 306 304 302 301 299 298 297 296 295 292 289 287 287
7 359 353 348 345 340 335 334 320 319 315 311 308 309 301 299 301 301 301 303 302 302 299 297 301 300 299 297 297 304 296 298 301 301 299 297 294 292 290 289 287 285 282
356 352 346 341 338 335 332 327 318 316 316 312 310 307 301 300 298 297 295 294 296 299 300 303 303 302 303 299 298 298 297 297 298 295 292 290 288 287 287 286 284 282 280
355 346 343 338 334 330 328 323 316 316 313 311 306 302 302 300 300 296 293 291 288 288 291 296 301 301 303 298 297 296 292 292 289 287 286 287 287 286 286 285 284 282 280
349 344 337 331 327 326 324 319 316 315 311 308 306 304 304 303 300 298 296 291 287 286 287 292 294 299 301 299 298 295 292 290 287 285 286 286 287 286 285 283 282 281 279
343 337 328 323 323 322 321 317 315 313 310 308 307 306 305 305 302 300 297 295 293 291 290 293 296 297 297 299 298 297 295 290 288 288 287 285 283 282 282 281 280 279 279
333 329 324 322 321 320 316 313 314 312 309 307 307 307 306 306 304 303 302 298 296 297 295 293 294 295 295 296 299 296 294 290 289 288 288 285 284 283 282 281 280 279 277
325 323 321 319 317 316 312 317 317 312 309 308 306 305 306 306 306 306 303 302 303 301 297 294 293 295 295 297 296 296 296 294 292 292 289 286 283 282 279 277 275 274 272
318 317 316 316 316 313 316 322 315 312 310 308 307 307 306 306 302 302 303 305 304 300 298 297 297 298 297 299 298 299 295 296 291 288 287 283 283 280 280 278 275 268 266
316 317 316 316 315 313 318 317 317 312 309 308 309 309 308 305 306 306 306 304 302 300 300 300 300 298 298 298 298 296 295 294 292 291 289 287 287 283 281 278 276 276 274
316 315 316 316 314 313 316 318 317 314 309 308 309 309 308 308 310 308 308 307 305 301 300 300 298 297 298 298 298 295 291 289 287 290 291 285 282 279 278 276 277 273 270
313 312 314 313 310 310 316 317 317 314 310 308 308 308 307 309 310 312 311 310 307 306 303 302 297 296 295 294 292 291 292 290 286 282 282 285 288 285 284 280 276 273 270
311 312 311 310 309 311 315 316 319 315 309 310 309 308 308 308 311 315 314 312 310 309 308 305 302 298 298 299 298 295 292 290 291 292 292 288 290 292 287 281 274 271 268
308 309 307 308 308 308 311 316 320 314 312 312 310 309 308 310 313 316 317 315 312 312 312 309 307 305 302 299 298 293 292 291 292 294 295 292 293 301 294 282 282 288 280